Wind_Speed
48 49 49 48 48 48 46 45 44 43 42 41 40 39 38 37 37 38 38 38 38 38 38 37 36 36 35 35 36 36 36 36 37 37 37 37 37 38 39 39 40 42 42
48 48 48 49 48 48 48 47 46 45 44 43 42 41 40 40 39 39 40 41 42 42 41 41 40 39 39 39 39 39 39 39 39 40 40 39 38 39 40 40 41 42 43
47 46 46 47 47 47 47 48 48 47 46 45 45 44 43 42 42 42 42 42 43 44 44 44 43 43 43 43 43 43 42 42 41 42 43 43 41 40 40 41 41 42 43
46 46 46 45 46 46 47 48 48 49 49 48 47 46 46 45 45 45 44 45 45 46 47 47 47 47 46 46 45 45 44 44 43 43 44 44 44 44 42 42 42 43 44
45 46 46 46 45 46 46 47 47 48 48 49 49 49 49 49 48 47 48 49 48 49 49 49 49 49 48 47 47 46 46 45 45 45 45 44 45 44 44 43 44 45 44
45 45 46 46 46 46 46 46 47 47 47 48 49 49 49 49 49 50 50 50 49 49 49 50 49 49 48 48 47 47 46 46 46 46 46 45 44 44 44 44 45 45 45
43 44 44 45 46 47 47 48 48 48 48 48 49 49 49 49 49 50 50 50 50 49 49 49 49 49 49 49 48 48 47 47 47 46 46 45 45 45 45 45 44 44 44
38 40 41 43 44 46 47 48 49 50 50 50 50 50 50 50 50 51 52 52 51 51 50 49 49 49 49 49 48 48 47 47 47 46 46 46 45 46 46 45 45 44 44
35 36 38 39 40 42 45 48 49 50 50 51 51 52 53 53 52 52 52 52 52 51 51 50 49 49 49 49 48 48 48 47 47 47 46 46 46 46 45 45 45 44 44
32 33 35 37 37 38 40 43 46 48 49 51 52 52 53 52 52 52 52 52 51 51 52 51 50 50 50 49 49 49 48 48 48 47 47 47 46 46 45 45 45 44 43
31 31 33 34 35 36 38 40 41 43 45 47 48 49 50 51 52 52 52 52 52 52 51 51 51 51 51 50 50 49 49 48 48 48 47 46 46 45 45 45 44 42 41
30 30 31 32 32 33 35 36 37 39 40 42 43 45 46 48 49 49 50 51 52 52 51 51 51 51 51 51 50 50 49 48 48 47 47 46 45 45 44 43 41 40 38
30 30 30 30 31 31 32 33 34 36 37 38 40 41 43 44 46 47 48 48 49 49 49 50 50 50 49 49 48 48 47 47 46 45 45 45 44 43 42 40 38 37 36
29 29 30 30 30 31 32 33 33 34 36 37 38 40 41 42 43 45 46 47 47 47 47 48 48 47 46 46 46 45 45 45 44 44 43 43 42 41 39 37 35 34 33
28 29 30 31 31 31 32 33 34 35 35 36 37 38 39 40 41 42 43 44 44 45 45 45 45 45 45 45 45 44 44 44 43 42 41 40 39 38 36 34 33 32 31
29 30 30 31 31 32 32 32 33 34 35 36 36 37 38 39 39 40 41 41 42 42 43 43 43 43 43 43 43 43 42 42 41 39 38 37 36 35 34 33 31 30 30
29 30 31 31 31 31 32 32 32 33 34 35 35 36 37 38 38 39 39 40 40 40 40 41 41 41 41 41 41 40 39 38 37 36 35 35 34 32 31 30 30 30 29
30 30 31 32 32 32 32 32 32 33 33 34 35 36 36 37 37 38 38 38 38 38 38 38 39 39 38 38 37 36 36 35 34 33 32 32 31 30 29 29 30 30 29
30 30 30 31 31 31 32 32 33 33 33 34 35 35 36 36 37 37 37 37 37 37 36 36 36 36 36 36 35 34 32 32 31 31 30 29 29 29 30 30 30 30 30
30 30 31 31 31 31 32 32 32 33 33 34 34 35 35 35 35 35 35 35 35 34 34 33 33 33 33 32 32 31 30 29 29 29 29 29 29 30 30 30 30 31 31
30 30 31 31 31 31 31 31 31 32 32 33 33 33 33 33 33 33 33 32 32 31 30 30 30 30 29 29 29 29 29 28 28 28 29 29 29 30 30 30 31 31 32
30 30 30 30 30 30 30 30 30 30 31 31 31 32 32 32 32 31 30 30 29 28 28 28 27 27 28 28 28 28 28 28 28 28 29 29 29 30 31 31 32 32 33
31 31 30 30 30 29 29 29 29 29 29 30 30 31 31 30 29 28 28 27 27 27 27 27 27 27 27 27 27 27 27 27 28 28 29 29 30 31 32 32 33 34 35
31 30 30 30 30 30 29 29 29 29 29 29 29 29 28 28 27 27 26 26 26 26 25 25 26 26 26 26 26 26 27 27 28 28 29 30 32 32 33 34 35 36 37
31 30 30 30 30 30 30 30 30 29 29 28 28 28 28 27 27 27 26 24 24 24 24 24 25 25 25 25 26 26 27 27 28 29 31 32 33 34 35 36 37 37 38
32 32 31 31 31 30 30 30 30 30 29 28 28 27 27 26 26 26 25 25 24 24 24 24 25 25 25 26 27 28 29 30 31 32 33 34 35 36 36 37 38 39 39
Wind_Direction
232 233 233 234 234 234 236 239 242 244 245 247 250 252 254 256 259 261 262 264 266 268 269 271 274 277 280 283 286 288 289 291 292 293 294 296 297 298 299 301 302 303 304
233 234 234 235 236 237 237 239 241 244 246 248 250 252 254 256 258 262 264 265 267 268 270 271 274 276 279 282 285 287 288 290 291 292 293 294 295 296 298 300 301 302 303
233 235 236 236 238 239 239 240 241 243 245 248 250 252 254 257 260 263 266 267 268 269 270 272 274 276 279 281 283 285 287 288 290 291 293 294 295 295 297 298 299 300 301
234 236 237 238 239 241 242 243 243 244 246 248 250 253 255 257 259 262 265 267 269 269 270 272 274 276 278 279 281 283 285 287 288 290 291 293 294 295 296 298 299 300 300
236 238 239 240 241 242 243 245 246 247 249 250 251 253 256 258 260 263 265 267 268 270 271 273 274 276 277 278 280 282 284 286 287 288 290 291 293 295 296 297 299 300 300
239 240 241 242 242 244 245 247 248 249 250 252 253 255 257 259 261 264 266 267 268 269 271 272 273 275 276 278 280 281 283 284 285 286 288 290 292 293 295 296 298 298 299
243 243 244 244 244 245 246 248 250 251 252 253 255 256 258 259 261 263 266 267 268 269 270 270 272 274 275 277 278 279 281 282 284 285 287 289 291 292 294 295 296 297 297
244 246 247 247 247 247 247 248 250 252 253 255 256 256 258 260 262 264 265 267 268 268 268 269 271 273 274 276 277 278 280 281 283 284 286 288 290 291 293 294 295 295 296
246 248 250 250 250 249 249 250 251 252 253 255 257 258 259 261 262 263 265 266 267 268 269 270 271 271 273 274 276 277 279 280 282 284 285 287 288 289 291 292 293 294 294
248 249 251 252 252 252 252 252 252 253 254 256 257 258 259 261 262 263 264 264 266 267 268 269 270 271 273 273 275 276 278 280 282 283 284 286 287 288 290 290 291 291 292
249 250 252 253 253 253 254 254 254 255 256 257 258 259 260 261 262 263 264 265 266 267 268 269 270 271 272 273 275 277 278 280 282 283 284 285 286 287 288 288 289 289 290
248 250 252 253 254 254 255 256 257 257 258 258 259 260 261 262 264 265 265 265 266 267 268 270 271 272 273 274 275 277 278 280 281 282 283 283 284 285 286 287 287 287 288
250 252 254 255 255 255 256 257 258 259 259 260 261 262 262 263 264 265 265 266 267 268 269 270 271 272 273 274 276 277 278 279 280 280 281 281 282 283 284 284 285 286 287
252 252 254 256 257 257 258 258 259 259 260 260 262 263 264 264 265 266 267 268 269 269 270 271 271 272 273 273 275 276 276 277 278 278 279 280 281 282 281 282 283 284 285
252 253 254 256 258 259 260 260 260 260 261 262 263 264 265 267 268 268 269 269 270 271 271 271 271 271 272 272 273 274 274 275 276 278 278 279 279 279 280 281 281 282 283
254 255 256 258 259 260 261 261 261 261 261 262 264 265 265 266 268 269 269 270 271 271 271 271 271 271 271 272 272 273 274 275 275 276 276 276 276 277 278 279 279 281 282
257 256 257 258 259 261 262 263 262 262 262 263 264 265 266 267 268 269 270 270 271 272 272 271 271 271 271 271 272 272 273 274 274 274 274 275 275 276 276 277 279 281 282
259 259 259 259 260 261 262 263 263 262 263 264 264 265 267 268 269 270 271 271 272 272 272 271 271 271 271 271 270 270 271 272 272 273 273 273 273 274 275 276 279 280 282
260 260 259 259 260 261 263 263 263 263 263 264 264 265 267 269 270 271 272 272 272 272 272 272 271 270 269 269 270 270 270 270 271 270 271 271 272 273 274 276 279 281 283
260 260 260 261 261 262 263 263 263 263 264 264 265 267 268 270 271 272 272 272 272 272 271 271 271 270 269 269 268 268 268 269 269 269 269 271 272 274 276 278 280 282 284
261 261 261 261 261 262 263 263 263 264 264 265 266 267 267 269 270 271 272 271 271 270 270 270 270 270 269 269 269 268 267 267 268 269 270 271 273 275 277 279 282 284 285
262 262 261 261 261 262 262 262 263 264 264 265 265 266 267 269 270 271 271 270 270 270 269 270 270 270 269 269 269 269 268 268 269 269 270 273 275 277 279 281 283 285 286
260 261 261 260 260 260 261 262 262 263 264 265 266 266 267 267 268 269 269 268 269 270 270 269 269 269 269 269 269 269 270 270 271 272 273 275 277 279 281 283 285 286 287
260 261 260 259 259 259 260 261 261 263 264 265 265 265 264 264 266 266 267 268 268 269 270 270 270 270 269 270 270 271 272 273 274 275 276 278 280 281 283 285 286 287 289
260 260 259 258 258 259 259 260 261 262 263 264 265 263 263 262 264 264 266 267 267 268 270 271 270 270 270 271 272 273 274 275 277 279 280 281 282 284 285 287 288 289 290
259 258 259 258 258 258 258 259 260 261 260 262 263 262 261 261 263 264 265 265 266 267 267 268 269 270 272 274 275 276 277 279 280 281 282 283 285 286 287 288 289 290 291
Height
5766 5772 5778 5783 5789 5794 5799 5803 5807 5811 5814 5817 5820 5823 5825 5828 5830 5832 5833 5835 5836 5837 5838 5838 5838 5838 5838 5838 5837 5836 5836 5835 5833 5832 5831 5830 5827 5825 5822 5819 5816 5813 5810
5758 5764 5770 5776 5781 5786 5791 5795 5799 5803 5807 5810 5813 5816 5818 5820 5822 5824 5825 5827 5828 5829 5830 5830 5830 5830 5830 5830 5829 5828 5827 5826 5825 5823 5822 5822 5821 5817 5814 5812 5808 5805 5801
5751 5757 5763 5769 5774 5779 5783 5788 5791 5795 5799 5802 5805 5808 5810 5812 5815 5816 5817 5818 5819 5820 5821 5821 5822 5822 5822 5821 5820 5819 5819 5818 5816 5814 5812 5811 5811 5809 5807 5804 5800 5797 5793
5745 5750 5756 5762 5767 5772 5776 5780 5783 5787 5790 5793 5797 5799 5802 5804 5806 5807 5808 5809 5810 5811 5812 5812 5812 5813 5813 5812 5811 5810 5809 5808 5807 5805 5803 5801 5799 5798 5798 5795 5791 5788 5784
5738 5743 5749 5754 5759 5763 5767 5771 5775 5778 5782 5785 5788 5790 5793 5795 5797 5798 5799 5800 5801 5801 5802 5803 5803 5803 5803 5802 5801 5801 5800 5798 5797 5796 5794 5792 5790 5788 5787 5785 5782 5778 5774
5731 5736 5741 5746 5751 5755 5759 5762 5766 5769 5773 5775 5778 5780 5783 5785 5787 5788 5789 5790 5791 5792 5792 5792 5792 5792 5792 5792 5791 5791 5790 5789 5787 5786 5784 5782 5781 5779 5776 5775 5772 5769 5765
5724 5729 5734 5738 5742 5747 5750 5753 5756 5760 5763 5766 5768 5771 5773 5775 5776 5778 5779 5780 5781 5782 5782 5782 5782 5782 5782 5781 5781 5780 5779 5778 5777 5776 5774 5772 5770 5768 5766 5764 5762 5759 5755
5718 5722 5726 5730 5734 5738 5741 5744 5747 5750 5753 5756 5758 5761 5762 5764 5766 5767 5768 5769 5770 5771 5771 5771 5771 5771 5771 5770 5770 5770 5769 5768 5766 5765 5764 5762 5760 5758 5755 5753 5751 5748 5745
5711 5715 5718 5722 5725 5728 5731 5733 5737 5740 5743 5745 5747 5749 5751 5753 5754 5755 5756 5757 5758 5759 5759 5759 5760 5760 5760 5759 5759 5758 5758 5757 5756 5754 5753 5751 5749 5747 5745 5742 5740 5738 5735
5704 5707 5710 5713 5716 5719 5721 5723 5726 5729 5732 5734 5736 5738 5740 5741 5743 5744 5745 5746 5746 5747 5747 5748 5748 5748 5748 5748 5748 5747 5746 5746 5744 5743 5742 5740 5738 5736 5734 5731 5729 5727 5725
5698 5700 5703 5705 5708 5710 5712 5714 5717 5719 5721 5723 5725 5727 5728 5729 5731 5732 5733 5734 5735 5735 5735 5736 5736 5736 5736 5736 5736 5735 5735 5734 5733 5732 5730 5729 5727 5725 5723 5721 5718 5716 5714
5691 5693 5695 5697 5699 5702 5703 5706 5708 5710 5711 5713 5714 5716 5717 5718 5719 5720 5721 5722 5722 5723 5723 5724 5724 5724 5724 5724 5724 5723 5723 5722 5721 5720 5719 5717 5716 5714 5712 5710 5708 5706 5704
5684 5686 5688 5690 5691 5693 5695 5697 5699 5700 5702 5703 5704 5705 5706 5707 5708 5709 5709 5710 5710 5711 5711 5711 5712 5712 5712 5712 5711 5711 5711 5710 5709 5708 5707 5706 5704 5702 5701 5699 5697 5696 5694
5677 5679 5680 5682 5684 5685 5687 5688 5689 5691 5692 5693 5694 5695 5696 5696 5697 5698 5698 5698 5699 5699 5699 5699 5699 5699 5699 5699 5699 5699 5699 5698 5697 5696 5695 5694 5693 5692 5690 5689 5687 5686 5685
5669 5671 5672 5674 5675 5677 5678 5679 5680 5681 5682 5683 5684 5685 5685 5686 5686 5687 5687 5687 5687 5687 5688 5688 5688 5688 5688 5688 5688 5687 5687 5687 5686 5685 5684 5683 5682 5681 5680 5679 5678 5677 5676
5661 5663 5664 5665 5667 5668 5669 5670 5671 5671 5672 5673 5674 5675 5675 5676 5676 5676 5676 5676 5676 5676 5676 5676 5676 5676 5676 5676 5676 5676 5676 5675 5675 5674 5673 5673 5672 5671 5671 5670 5669 5668 5667
5653 5654 5655 5656 5658 5659 5660 5661 5661 5662 5663 5664 5664 5665 5665 5666 5666 5666 5666 5665 5665 5665 5665 5665 5665 5665 5665 5665 5665 5665 5665 5664 5664 5664 5663 5663 5663 5662 5662 5661 5660 5659 5658
5645 5646 5647 5648 5649 5650 5651 5651 5652 5652 5653 5654 5654 5655 5655 5655 5655 5655 5655 5655 5655 5655 5654 5654 5654 5654 5654 5654 5654 5654 5654 5654 5654 5654 5654 5654 5653 5653 5653 5652 5651 5651 5649
5636 5637 5638 5639 5640 5641 5641 5642 5642 5643 5643 5644 5645 5645 5645 5645 5645 5645 5645 5645 5645 5644 5644 5644 5644 5644 5644 5644 5644 5644 5644 5644 5645 5645 5645 5645 5645 5645 5644 5644 5643 5642 5640
5627 5628 5629 5630 5631 5631 5632 5632 5633 5633 5634 5634 5635 5635 5636 5636 5636 5635 5635 5635 5635 5634 5634 5634 5634 5634 5635 5635 5635 5635 5635 5636 5636 5636 5636 5636 5636 5636 5636 5635 5634 5633 5631
5618 5619 5620 5620 5621 5622 5622 5623 5623 5624 5624 5625 5625 5626 5626 5626 5626 5626 5626 5625 5625 5625 5625 5625 5625 5626 5626 5626 5626 5627 5627 5627 5628 5628 5628 5628 5628 5627 5627 5626 5625 5623 5622
5609 5610 5610 5611 5612 5612 5613 5614 5614 5615 5615 5615 5616 5616 5616 5617 5617 5617 5617 5617 5617 5617 5617 5617 5617 5617 5618 5618 5618 5619 5619 5619 5619 5620 5620 5619 5619 5618 5618 5616 5615 5614 5612
5600 5601 5601 5602 5603 5603 5604 5605 5605 5606 5606 5606 5607 5607 5607 5608 5608 5608 5608 5609 5609 5609 5609 5609 5609 5610 5610 5610 5610 5611 5611 5611 5611 5611 5611 5611 5610 5609 5608 5607 5605 5604 5602
5591 5591 5592 5593 5594 5594 5595 5596 5597 5597 5597 5598 5598 5598 5599 5599 5600 5600 5601 5601 5601 5601 5601 5601 5602 5602 5602 5603 5603 5603 5603 5603 5603 5603 5602 5602 5601 5600 5598 5597 5595 5593 5591
5581 5582 5583 5583 5584 5585 5586 5587 5587 5588 5589 5589 5590 5590 5591 5591 5592 5592 5593 5593 5593 5594 5594 5594 5595 5595 5595 5595 5596 5595 5595 5595 5595 5594 5593 5592 5591 5590 5588 5586 5584 5582 5580
5572 5572 5573 5574 5575 5576 5577 5578 5578 5579 5580 5581 5581 5582 5582 5583 5584 5584 5585 5585 5586 5586 5587 5587 5587 5587 5588 5587 5588 5587 5587 5587 5586 5585 5584 5583 5581 5580 5578 5576 5573 5571 5568